Retour au catalogue

STARLINK-36369

ActifCommunicationsSSO
NORAD 67723·PAYLOAD·🇺🇸 United States

Lancé Feb 11, 2026 depuis Vandenberg Space Force Base

Loading…

Prochains Passages (prochaines 24 heures)

TLE

FraisSource: CelesTrak SupGP

Époque: Sep 15, 2026, 03:04 UTC

1 67723C 26026C   26258.12826389  .00005947  00000+0  18459-3 0  2585
2 67723  97.2851 309.9750 0001316  83.5426 267.6636 15.33440569    18

Suivez STARLINK-36369 en temps réel avec AllMySat

Download on the App Store